contact: severine.martini@mio.osupytheas.fr, dominique.lefevre@mio.osupytheas.fr
Project:EMSO Ligure-ouest http://www.emso-fr.org/EMSO-France
Sensor Optode, line 4330 Serial 272 
DOI : "https://doi.org/10.17882/97948" 
Title:EMSO Ligure Ouest : Data BathyDock capteur Optode - deploiement "2023-04-28"
Datetime,Profondeur,Latitude,Longitude,optode_type,serial,O2_concentration,O2_saturation,Temperature,Calibrated_Phase,Temp_Compensated_Phase,phase_blue_light,phase_red_light,Amplitude_blue_light,Amplitude_red_light,thermistor_bridge
time,m,degree_north,degree_east,1,1,umol.l-1,%,degree_C,degree,degree,degree,degree,mV,mV,mV
2023-12-20T00:00:07,2420,42.8014,5.9826,4330,272,186.693,57.169,13.302,36.028,36.608,41.198,4.590,295.7,545.3,291.5
2023-12-20T00:03:07,2420,42.8014,5.9826,4330,272,186.675,57.165,13.304,36.029,36.609,41.198,4.589,295.7,545.3,291.4
2023-12-20T00:06:07,2420,42.8014,5.9826,4330,272,186.790,57.202,13.305,36.021,36.601,41.187,4.586,295.6,545.3,291.4
2023-12-20T00:09:07,2420,42.8014,5.9826,4330,272,186.569,57.131,13.302,36.037,36.617,41.208,4.591,295.6,545.3,291.5
2023-12-20T00:12:07,2420,42.8014,5.9826,4330,272,186.591,57.140,13.304,36.034,36.614,41.204,4.590,295.6,545.3,291.4
2023-12-20T00:15:08,2420,42.8014,5.9826,4330,272,186.615,57.145,13.302,36.034,36.614,41.198,4.584,295.6,545.3,291.5
2023-12-20T00:18:08,2420,42.8014,5.9826,4330,272,186.637,57.153,13.303,36.032,36.612,41.195,4.583,295.7,545.3,291.4
2023-12-20T00:21:08,2420,42.8014,5.9826,4330,272,186.836,57.213,13.302,36.019,36.599,41.190,4.591,295.6,545.3,291.5
2023-12-20T00:24:07,2420,42.8014,5.9826,4330,272,186.710,57.177,13.304,36.026,36.607,41.196,4.589,295.6,545.4,291.4
2023-12-20T00:27:07,2420,42.8014,5.9826,4330,272,186.695,57.169,13.302,36.028,36.608,41.194,4.586,295.6,545.3,291.5
2023-12-20T00:30:07,2420,42.8014,5.9826,4330,272,186.599,57.141,13.302,36.035,36.615,41.202,4.587,295.6,545.3,291.5
2023-12-20T00:33:07,2420,42.8014,5.9826,4330,272,186.580,57.136,13.304,36.035,36.615,41.203,4.588,295.6,545.3,291.4
2023-12-20T00:36:07,2420,42.8014,5.9826,4330,272,186.656,57.157,13.301,36.032,36.612,41.193,4.581,295.6,545.4,291.5
2023-12-20T00:39:07,2420,42.8014,5.9826,4330,272,186.592,57.138,13.302,36.035,36.615,41.202,4.587,295.6,545.4,291.5
2023-12-20T00:42:07,2420,42.8014,5.9826,4330,272,186.635,57.151,13.302,36.032,36.612,41.200,4.588,295.6,545.3,291.5
2023-12-20T00:45:07,2420,42.8014,5.9826,4330,272,186.766,57.191,13.302,36.024,36.604,41.192,4.589,295.6,545.3,291.5
2023-12-20T00:48:08,2420,42.8014,5.9826,4330,272,186.788,57.200,13.304,36.022,36.602,41.187,4.585,295.6,545.3,291.4
2023-12-20T00:51:08,2420,42.8014,5.9826,4330,272,186.807,57.205,13.303,36.021,36.601,41.190,4.589,295.6,545.3,291.5
2023-12-20T00:54:08,2420,42.8014,5.9826,4330,272,186.589,57.138,13.303,36.034,36.614,41.203,4.589,295.6,545.3,291.4
2023-12-20T00:57:08,2420,42.8014,5.9826,4330,272,186.652,57.156,13.302,36.031,36.611,41.197,4.586,295.5,545.3,291.5
2023-12-20T01:00:08,2420,42.8014,5.9826,4330,272,186.608,57.144,13.303,36.033,36.613,41.205,4.592,295.6,545.2,291.5
2023-12-20T01:03:07,2420,42.8014,5.9826,4330,272,186.587,57.139,13.304,36.034,36.614,41.204,4.590,295.6,545.2,291.4
2023-12-20T01:06:07,2420,42.8014,5.9826,4330,272,186.700,57.172,13.303,36.028,36.608,41.192,4.584,295.6,545.3,291.5
2023-12-20T01:09:07,2420,42.8014,5.9826,4330,272,186.876,57.225,13.302,36.016,36.596,41.188,4.591,295.6,545.3,291.5
2023-12-20T01:12:07,2420,42.8014,5.9826,4330,272,186.678,57.163,13.301,36.030,36.611,41.198,4.587,295.7,545.3,291.5
2023-12-20T01:15:07,2420,42.8014,5.9826,4330,272,186.426,57.090,13.304,36.044,36.624,41.213,4.589,295.6,545.3,291.4
2023-12-20T01:18:07,2420,42.8014,5.9826,4330,272,186.813,57.207,13.303,36.021,36.601,41.192,4.591,295.6,545.3,291.5
2023-12-20T01:21:08,2420,42.8014,5.9826,4330,272,186.640,57.153,13.303,36.032,36.612,41.195,4.583,295.6,545.3,291.5
2023-12-20T01:24:08,2420,42.8014,5.9826,4330,272,186.627,57.149,13.302,36.033,36.613,41.202,4.589,295.6,545.3,291.5
2023-12-20T01:27:08,2420,42.8014,5.9826,4330,272,186.659,57.160,13.304,36.030,36.610,41.197,4.587,295.6,545.2,291.4
2023-12-20T01:30:08,2420,42.8014,5.9826,4330,272,186.439,57.093,13.303,36.045,36.625,41.208,4.583,295.5,545.3,291.4
2023-12-20T01:33:07,2420,42.8014,5.9826,4330,272,186.668,57.164,13.305,36.029,36.609,41.198,4.589,295.6,545.4,291.4
2023-12-20T01:36:07,2420,42.8014,5.9826,4330,272,186.788,57.203,13.306,36.021,36.601,41.187,4.587,295.6,545.2,291.4
2023-12-20T01:39:07,2420,42.8014,5.9826,4330,272,186.588,57.138,13.303,36.035,36.615,41.202,4.588,295.6,545.3,291.5
2023-12-20T01:42:07,2420,42.8014,5.9826,4330,272,186.518,57.116,13.302,36.040,36.620,41.204,4.584,295.6,545.2,291.5
2023-12-20T01:45:07,2420,42.8014,5.9826,4330,272,186.702,57.174,13.304,36.027,36.607,41.194,4.587,295.6,545.3,291.4
2023-12-20T01:48:08,2420,42.8014,5.9826,4330,272,186.540,57.124,13.304,36.037,36.617,41.209,4.592,295.6,545.3,291.4
2023-12-20T01:51:08,2420,42.8014,5.9826,4330,272,186.560,57.129,13.303,36.037,36.617,41.202,4.585,295.6,545.3,291.5
2023-12-20T01:54:08,2420,42.8014,5.9826,4330,272,186.726,57.181,13.304,36.026,36.606,41.196,4.589,295.5,545.3,291.4
2023-12-20T01:57:08,2420,42.8014,5.9826,4330,272,186.792,57.201,13.304,36.022,36.602,41.189,4.587,295.6,545.4,291.4
2023-12-20T02:00:08,2420,42.8014,5.9826,4330,272,186.666,57.165,13.305,36.029,36.609,41.190,4.581,295.5,545.3,291.4
2023-12-20T02:03:07,2420,42.8014,5.9826,4330,272,186.861,57.224,13.305,36.016,36.596,41.183,4.587,295.6,545.3,291.4
2023-12-20T02:06:07,2420,42.8014,5.9826,4330,272,186.742,57.184,13.302,36.025,36.606,41.190,4.584,295.6,545.3,291.5
2023-12-20T02:09:07,2420,42.8014,5.9826,4330,272,186.747,57.190,13.306,36.024,36.604,41.191,4.588,295.6,545.3,291.4
2023-12-20T02:12:07,2420,42.8014,5.9826,4330,272,186.506,57.113,13.303,36.040,36.620,41.202,4.582,295.6,545.3,291.4
2023-12-20T02:15:08,2420,42.8014,5.9826,4330,272,186.728,57.181,13.303,36.025,36.605,41.194,4.588,295.6,545.3,291.5
2023-12-20T02:18:08,2420,42.8014,5.9826,4330,272,186.754,57.189,13.304,36.024,36.604,41.200,4.596,295.7,545.3,291.4
2023-12-20T02:21:08,2420,42.8014,5.9826,4330,272,186.643,57.155,13.303,36.031,36.612,41.202,4.591,295.6,545.3,291.4
2023-12-20T02:24:08,2420,42.8014,5.9826,4330,272,186.557,57.130,13.304,36.037,36.617,41.202,4.586,295.6,545.3,291.4
2023-12-20T02:27:07,2420,42.8014,5.9826,4330,272,186.824,57.215,13.307,36.018,36.598,41.186,4.588,295.6,545.2,291.3
2023-12-20T02:30:07,2420,42.8014,5.9826,4330,272,186.579,57.136,13.304,36.035,36.615,41.199,4.585,295.6,545.3,291.4
2023-12-20T02:33:07,2420,42.8014,5.9826,4330,272,186.618,57.146,13.302,36.034,36.614,41.203,4.589,295.6,545.3,291.5
2023-12-20T02:36:07,2420,42.8014,5.9826,4330,272,186.394,57.081,13.305,36.046,36.626,41.215,4.589,295.7,545.3,291.4
2023-12-20T02:39:07,2420,42.8014,5.9826,4330,272,186.608,57.146,13.305,36.033,36.613,41.199,4.587,295.6,545.3,291.4
2023-12-20T02:42:07,2420,42.8014,5.9826,4330,272,186.744,57.186,13.304,36.024,36.605,41.195,4.591,295.6,545.3,291.4
2023-12-20T02:45:07,2420,42.8014,5.9826,4330,272,186.777,57.200,13.307,36.021,36.601,41.192,4.591,295.5,545.3,291.3
2023-12-20T02:48:08,2420,42.8014,5.9826,4330,272,186.476,57.107,13.306,36.040,36.620,41.207,4.587,295.6,545.3,291.4
2023-12-20T02:51:08,2420,42.8014,5.9826,4330,272,186.559,57.129,13.303,36.037,36.617,41.204,4.587,295.7,545.3,291.5
2023-12-20T02:54:08,2420,42.8014,5.9826,4330,272,186.633,57.160,13.309,36.029,36.609,41.198,4.589,295.6,545.2,291.3
2023-12-20T02:57:08,2420,42.8014,5.9826,4330,272,186.576,57.137,13.305,36.034,36.614,41.204,4.589,295.5,545.3,291.4
2023-12-20T03:00:08,2420,42.8014,5.9826,4330,272,186.483,57.106,13.303,36.042,36.622,41.205,4.583,295.6,545.3,291.5
2023-12-20T03:03:07,2420,42.8014,5.9826,4330,272,186.540,57.124,13.303,36.038,36.618,41.208,4.591,295.6,545.3,291.4
2023-12-20T03:06:07,2420,42.8014,5.9826,4330,272,186.826,57.217,13.308,36.017,36.597,41.188,4.590,295.5,545.3,291.3
2023-12-20T03:09:08,2420,42.8014,5.9826,4330,272,186.646,57.163,13.309,36.028,36.609,41.197,4.589,295.6,545.3,291.3
2023-12-20T03:12:08,2420,42.8014,5.9826,4330,272,186.702,57.180,13.309,36.024,36.604,41.190,4.586,295.6,545.2,291.3
2023-12-20T03:15:07,2420,42.8014,5.9826,4330,272,186.625,57.162,13.313,36.028,36.608,41.193,4.585,295.6,545.3,291.1
2023-12-20T03:18:07,2420,42.8014,5.9826,4330,272,186.494,57.118,13.310,36.038,36.618,41.204,4.586,295.7,545.3,291.2
2023-12-20T03:21:08,2420,42.8014,5.9826,4330,272,186.697,57.179,13.309,36.025,36.605,41.197,4.592,295.6,545.2,291.2
2023-12-20T03:24:07,2420,42.8014,5.9826,4330,272,186.622,57.150,13.304,36.031,36.612,41.200,4.588,295.7,545.3,291.4
2023-12-20T03:27:07,2420,42.8014,5.9826,4330,272,186.684,57.168,13.304,36.028,36.608,41.197,4.589,295.6,545.2,291.4
2023-12-20T03:30:07,2420,42.8014,5.9826,4330,272,186.609,57.146,13.305,36.033,36.613,41.202,4.589,295.7,545.3,291.4
2023-12-20T03:33:08,2420,42.8014,5.9826,4330,272,186.681,57.172,13.308,36.027,36.607,41.194,4.587,295.6,545.2,291.3
2023-12-20T03:36:08,2420,42.8014,5.9826,4330,272,186.929,57.243,13.304,36.012,36.593,41.186,4.593,295.7,545.2,291.4
2023-12-20T03:39:07,2420,42.8014,5.9826,4330,272,186.667,57.164,13.304,36.029,36.609,41.201,4.591,295.6,545.3,291.4
2023-12-20T03:42:07,2420,42.8014,5.9826,4330,272,186.746,57.188,13.305,36.024,36.604,41.191,4.587,295.6,545.2,291.4
2023-12-20T03:45:07,2420,42.8014,5.9826,4330,272,186.592,57.141,13.304,36.034,36.614,41.201,4.587,295.6,545.2,291.4
2023-12-20T03:48:07,2420,42.8014,5.9826,4330,272,186.762,57.196,13.306,36.022,36.602,41.195,4.593,295.7,545.3,291.3
2023-12-20T03:51:07,2420,42.8014,5.9826,4330,272,186.380,57.075,13.304,36.048,36.628,41.213,4.585,295.6,545.2,291.4
2023-12-20T03:54:07,2420,42.8014,5.9826,4330,272,186.623,57.154,13.307,36.030,36.610,41.196,4.586,295.7,545.2,291.3
2023-12-20T03:57:07,2420,42.8014,5.9826,4330,272,186.680,57.172,13.307,36.027,36.607,41.195,4.588,295.6,545.2,291.3
2023-12-20T04:00:08,2420,42.8014,5.9826,4330,272,186.486,57.118,13.312,36.037,36.617,41.204,4.587,295.7,545.2,291.2
2023-12-20T04:03:07,2420,42.8014,5.9826,4330,272,186.708,57.182,13.309,36.024,36.605,41.191,4.587,295.6,545.2,291.3
2023-12-20T04:06:07,2420,42.8014,5.9826,4330,272,186.807,57.213,13.309,36.018,36.598,41.192,4.595,295.6,545.2,291.3
2023-12-20T04:09:08,2420,42.8014,5.9826,4330,272,186.511,57.127,13.313,36.035,36.615,41.194,4.579,295.6,545.3,291.1
2023-12-20T04:12:08,2420,42.8014,5.9826,4330,272,186.697,57.171,13.303,36.028,36.608,41.200,4.592,295.7,545.3,291.5
2023-12-20T04:15:08,2420,42.8014,5.9826,4330,272,186.482,57.109,13.305,36.041,36.621,41.212,4.592,295.6,545.2,291.4
2023-12-20T04:18:08,2420,42.8014,5.9826,4330,272,186.692,57.176,13.308,36.026,36.606,41.193,4.588,295.6,545.2,291.3
2023-12-20T04:21:08,2420,42.8014,5.9826,4330,272,186.649,57.169,13.312,36.026,36.607,41.200,4.593,295.7,545.2,291.1
2023-12-20T04:24:08,2420,42.8014,5.9826,4330,272,186.669,57.166,13.305,36.028,36.608,41.193,4.584,295.6,545.2,291.4
2023-12-20T04:27:07,2420,42.8014,5.9826,4330,272,186.448,57.101,13.307,36.042,36.622,41.208,4.587,295.6,545.3,291.3
2023-12-20T04:30:07,2420,42.8014,5.9826,4330,272,186.836,57.219,13.307,36.017,36.597,41.185,4.588,295.6,545.2,291.3
2023-12-20T04:33:07,2420,42.8014,5.9826,4330,272,186.457,57.112,13.314,36.038,36.618,41.205,4.587,295.6,545.2,291.1
2023-12-20T04:36:07,2420,42.8014,5.9826,4330,272,186.652,57.173,13.315,36.025,36.605,41.194,4.589,295.5,545.1,291.1
2023-12-20T04:39:07,2420,42.8014,5.9826,4330,272,186.571,57.146,13.314,36.031,36.611,41.198,4.587,295.6,545.2,291.1
2023-12-20T04:42:07,2420,42.8014,5.9826,4330,272,186.588,57.150,13.312,36.031,36.611,41.204,4.593,295.6,545.3,291.2
2023-12-20T04:45:08,2420,42.8014,5.9826,4330,272,186.369,57.077,13.308,36.046,36.626,41.215,4.589,295.7,545.2,291.3
2023-12-20T04:48:08,2420,42.8014,5.9826,4330,272,186.493,57.115,13.308,36.039,36.619,41.209,4.590,295.6,545.2,291.3
2023-12-20T04:51:08,2420,42.8014,5.9826,4330,272,186.603,57.147,13.306,36.032,36.612,41.199,4.586,295.6,545.2,291.3
2023-12-20T04:54:08,2420,42.8014,5.9826,4330,272,186.661,57.173,13.313,36.025,36.605,41.193,4.588,295.7,545.3,291.1
2023-12-20T04:57:07,2420,42.8014,5.9826,4330,272,186.533,57.132,13.311,36.034,36.614,41.204,4.590,295.7,545.2,291.2
2023-12-20T05:00:07,2420,42.8014,5.9826,4330,272,186.270,57.052,13.312,36.051,36.631,41.220,4.589,295.7,545.2,291.2
2023-12-20T05:03:07,2420,42.8014,5.9826,4330,272,186.531,57.125,13.306,36.037,36.617,41.200,4.583,295.7,545.2,291.4
2023-12-20T05:06:07,2420,42.8014,5.9826,4330,272,186.696,57.173,13.305,36.027,36.607,41.191,4.584,295.6,545.3,291.4
2023-12-20T05:09:07,2420,42.8014,5.9826,4330,272,186.648,57.162,13.308,36.028,36.608,41.191,4.583,295.6,545.2,291.3
2023-12-20T05:12:08,2420,42.8014,5.9826,4330,272,186.750,57.197,13.311,36.021,36.601,41.191,4.589,295.7,545.2,291.2
2023-12-20T05:15:08,2420,42.8014,5.9826,4330,272,186.585,57.145,13.309,36.032,36.612,41.199,4.587,295.6,545.2,291.2
2023-12-20T05:18:08,2420,42.8014,5.9826,4330,272,186.724,57.184,13.307,36.024,36.604,41.194,4.590,295.6,545.3,291.3
2023-12-20T05:21:08,2420,42.8014,5.9826,4330,272,186.532,57.122,13.304,36.038,36.618,41.206,4.588,295.7,545.3,291.4
2023-12-20T05:24:07,2420,42.8014,5.9826,4330,272,186.654,57.169,13.312,36.027,36.607,41.196,4.590,295.7,545.2,291.2
2023-12-20T05:27:07,2420,42.8014,5.9826,4330,272,186.508,57.124,13.312,36.036,36.616,41.203,4.587,295.6,545.2,291.2
2023-12-20T05:30:07,2420,42.8014,5.9826,4330,272,186.446,57.110,13.315,36.038,36.618,41.203,4.585,295.6,545.3,291.0
2023-12-20T05:33:07,2420,42.8014,5.9826,4330,272,186.516,57.127,13.312,36.035,36.615,41.204,4.589,295.6,545.2,291.2
2023-12-20T05:36:07,2420,42.8014,5.9826,4330,272,186.663,57.183,13.321,36.021,36.602,41.196,4.595,295.6,545.2,290.9
2023-12-20T05:39:07,2420,42.8014,5.9826,4330,272,186.417,57.106,13.319,36.038,36.618,41.202,4.584,295.5,545.2,290.9
2023-12-20T05:42:07,2420,42.8014,5.9826,4330,272,186.655,57.166,13.309,36.028,36.608,41.198,4.590,295.6,545.1,291.3
2023-12-20T05:45:08,2420,42.8014,5.9826,4330,272,186.523,57.124,13.308,36.037,36.617,41.207,4.590,295.7,545.2,291.3
2023-12-20T05:48:08,2420,42.8014,5.9826,4330,272,186.668,57.176,13.314,36.025,36.605,41.196,4.591,295.6,545.1,291.1
2023-12-20T05:51:08,2420,42.8014,5.9826,4330,272,186.462,57.109,13.311,36.039,36.619,41.210,4.590,295.7,545.2,291.2
2023-12-20T05:54:07,2420,42.8014,5.9826,4330,272,186.528,57.133,13.314,36.034,36.614,41.206,4.592,295.6,545.2,291.1
2023-12-20T05:57:07,2420,42.8014,5.9826,4330,272,186.774,57.207,13.312,36.018,36.598,41.186,4.588,295.7,545.2,291.2
2023-12-20T06:00:07,2420,42.8014,5.9826,4330,272,186.383,57.088,13.313,36.043,36.623,41.211,4.588,295.7,545.2,291.1
2023-12-20T06:03:07,2420,42.8014,5.9826,4330,272,186.399,57.095,13.314,36.042,36.622,41.211,4.589,295.7,545.2,291.1
2023-12-20T06:06:07,2420,42.8014,5.9826,4330,272,186.452,57.114,13.317,36.037,36.618,41.206,4.589,295.7,545.1,291.0
2023-12-20T06:09:07,2420,42.8014,5.9826,4330,272,186.464,57.110,13.311,36.039,36.619,41.208,4.589,295.7,545.2,291.2
2023-12-20T06:12:07,2420,42.8014,5.9826,4330,272,186.454,57.119,13.320,36.035,36.615,41.202,4.587,295.7,545.3,290.9
2023-12-20T06:15:08,2420,42.8014,5.9826,4330,272,186.294,57.064,13.316,36.048,36.628,41.211,4.583,295.7,545.2,291.0
2023-12-20T06:18:08,2420,42.8014,5.9826,4330,272,186.479,57.126,13.320,36.033,36.613,41.202,4.589,295.6,545.1,290.9
2023-12-20T06:21:08,2420,42.8014,5.9826,4330,272,186.565,57.152,13.320,36.029,36.609,41.199,4.590,295.6,545.2,290.9
2023-12-20T06:24:08,2420,42.8014,5.9826,4330,272,186.444,57.118,13.322,36.035,36.615,41.200,4.584,295.7,545.2,290.8
2023-12-20T06:27:07,2420,42.8014,5.9826,4330,272,186.197,57.044,13.324,36.050,36.630,41.217,4.587,295.7,545.1,290.8
2023-12-20T06:30:07,2420,42.8014,5.9826,4330,272,186.556,57.154,13.324,36.027,36.607,41.196,4.589,295.7,545.2,290.8
2023-12-20T06:33:07,2420,42.8014,5.9826,4330,272,186.459,57.124,13.323,36.034,36.614,41.197,4.584,295.7,545.2,290.8
2023-12-20T06:36:08,2420,42.8014,5.9826,4330,272,186.353,57.083,13.317,36.043,36.623,41.209,4.585,295.7,545.1,291.0
2023-12-20T06:39:07,2420,42.8014,5.9826,4330,272,186.762,57.199,13.309,36.020,36.600,41.189,4.589,295.7,545.2,291.2
2023-12-20T06:42:07,2420,42.8014,5.9826,4330,272,186.476,57.123,13.318,36.035,36.615,41.205,4.590,295.7,545.2,291.0
2023-12-20T06:45:07,2420,42.8014,5.9826,4330,272,186.387,57.090,13.314,36.042,36.622,41.211,4.588,295.6,545.1,291.1
2023-12-20T06:48:07,2420,42.8014,5.9826,4330,272,186.545,57.138,13.314,36.032,36.612,41.200,4.588,295.7,545.1,291.1
2023-12-20T06:51:07,2420,42.8014,5.9826,4330,272,186.428,57.109,13.319,36.038,36.618,41.205,4.587,295.7,545.2,290.9
2023-12-20T06:54:08,2420,42.8014,5.9826,4330,272,186.461,57.109,13.311,36.040,36.620,41.206,4.586,295.8,545.2,291.2
2023-12-20T06:57:08,2420,42.8014,5.9826,4330,272,186.492,57.119,13.311,36.037,36.617,41.203,4.586,295.7,545.1,291.2
2023-12-20T07:00:08,2420,42.8014,5.9826,4330,272,186.507,57.125,13.313,36.036,36.616,41.200,4.585,295.7,545.2,291.1
2023-12-20T07:03:07,2420,42.8014,5.9826,4330,272,186.366,57.091,13.320,36.041,36.621,41.209,4.588,295.7,545.2,290.9
2023-12-20T07:06:07,2420,42.8014,5.9826,4330,272,186.536,57.153,13.328,36.026,36.607,41.193,4.586,295.7,545.1,290.7
2023-12-20T07:09:07,2420,42.8014,5.9826,4330,272,186.775,57.209,13.314,36.018,36.598,41.194,4.597,295.8,545.2,291.1
2023-12-20T07:12:07,2420,42.8014,5.9826,4330,272,186.390,57.088,13.311,36.044,36.624,41.213,4.590,295.6,545.1,291.2
2023-12-20T07:15:07,2420,42.8014,5.9826,4330,272,186.465,57.117,13.316,36.037,36.617,41.207,4.590,295.7,545.2,291.0
2023-12-20T07:18:07,2420,42.8014,5.9826,4330,272,186.561,57.136,13.308,36.034,36.614,41.207,4.593,295.8,545.2,291.3
2023-12-20T07:21:08,2420,42.8014,5.9826,4330,272,186.408,57.099,13.316,36.041,36.621,41.208,4.587,295.7,545.2,291.0
2023-12-20T07:24:08,2420,42.8014,5.9826,4330,272,186.443,57.116,13.321,36.035,36.615,41.201,4.586,295.6,545.2,290.9
2023-12-20T07:27:08,2420,42.8014,5.9826,4330,272,186.368,57.082,13.312,36.045,36.625,41.213,4.588,295.7,545.2,291.2
2023-12-20T07:30:08,2420,42.8014,5.9826,4330,272,186.372,57.082,13.311,36.045,36.625,41.211,4.586,295.7,545.2,291.2
2023-12-20T07:33:07,2420,42.8014,5.9826,4330,272,186.513,57.126,13.312,36.036,36.616,41.204,4.588,295.7,545.2,291.2
2023-12-20T07:36:07,2420,42.8014,5.9826,4330,272,186.487,57.114,13.309,36.039,36.619,41.206,4.587,295.7,545.2,291.3
2023-12-20T07:39:07,2420,42.8014,5.9826,4330,272,186.450,57.105,13.311,36.040,36.620,41.204,4.584,295.7,545.3,291.2
2023-12-20T07:42:07,2420,42.8014,5.9826,4330,272,186.539,57.131,13.310,36.035,36.615,41.201,4.586,295.6,545.2,291.2
2023-12-20T07:45:07,2420,42.8014,5.9826,4330,272,186.693,57.180,13.311,36.024,36.604,41.190,4.585,295.8,545.2,291.2
2023-12-20T07:48:07,2420,42.8014,5.9826,4330,272,186.457,57.105,13.309,36.040,36.620,41.209,4.589,295.7,545.2,291.3
2023-12-20T07:51:07,2420,42.8014,5.9826,4330,272,186.203,57.031,13.311,36.056,36.636,41.226,4.590,295.7,545.2,291.2
2023-12-20T07:54:08,2420,42.8014,5.9826,4330,272,186.540,57.134,13.311,36.034,36.614,41.204,4.591,295.8,545.2,291.2
2023-12-20T07:57:08,2420,42.8014,5.9826,4330,272,186.433,57.100,13.310,36.042,36.622,41.209,4.587,295.7,545.2,291.2
2023-12-20T08:00:08,2420,42.8014,5.9826,4330,272,186.428,57.098,13.310,36.042,36.622,41.210,4.588,295.7,545.3,291.2
2023-12-20T08:03:07,2420,42.8014,5.9826,4330,272,186.323,57.070,13.313,36.047,36.627,41.213,4.585,295.7,545.3,291.1
2023-12-20T08:06:07,2420,42.8014,5.9826,4330,272,186.605,57.170,13.325,36.023,36.604,41.193,4.590,295.7,545.2,290.7
2023-12-20T08:09:07,2420,42.8014,5.9826,4330,272,186.391,57.089,13.312,36.044,36.624,41.212,4.588,295.7,545.2,291.2
2023-12-20T08:12:08,2420,42.8014,5.9826,4330,272,186.501,57.126,13.315,36.035,36.615,41.206,4.591,295.7,545.2,291.1
2023-12-20T08:15:08,2420,42.8014,5.9826,4330,272,186.348,57.080,13.315,36.045,36.625,41.212,4.587,295.7,545.2,291.1
2023-12-20T08:18:08,2420,42.8014,5.9826,4330,272,186.425,57.103,13.315,36.039,36.619,41.208,4.588,295.7,545.2,291.1
2023-12-20T08:21:07,2420,42.8014,5.9826,4330,272,186.436,57.110,13.318,36.038,36.618,41.205,4.587,295.6,545.2,291.0
2023-12-20T08:24:07,2420,42.8014,5.9826,4330,272,186.531,57.131,13.311,36.034,36.614,41.197,4.583,295.7,545.2,291.2
2023-12-20T08:27:07,2420,42.8014,5.9826,4330,272,186.680,57.173,13.308,36.026,36.607,41.198,4.591,295.7,545.2,291.3
2023-12-20T08:30:07,2420,42.8014,5.9826,4330,272,186.438,57.103,13.312,36.040,36.620,41.209,4.589,295.7,545.3,291.2
2023-12-20T08:33:07,2420,42.8014,5.9826,4330,272,186.396,57.101,13.321,36.039,36.619,41.212,4.593,295.7,545.2,290.9
2023-12-20T08:36:07,2420,42.8014,5.9826,4330,272,186.472,57.113,13.312,36.038,36.618,41.207,4.589,295.6,545.2,291.2
2023-12-20T08:39:07,2420,42.8014,5.9826,4330,272,186.197,57.027,13.310,36.057,36.637,41.221,4.585,295.7,545.2,291.2
2023-12-20T08:42:08,2420,42.8014,5.9826,4330,272,186.599,57.151,13.311,36.030,36.610,41.198,4.587,295.7,545.3,291.2
2023-12-20T08:45:08,2420,42.8014,5.9826,4330,272,186.641,57.178,13.322,36.022,36.603,41.191,4.588,295.7,545.2,290.8
2023-12-20T08:48:08,2420,42.8014,5.9826,4330,272,186.402,57.098,13.316,36.040,36.620,41.211,4.591,295.6,545.2,291.0
2023-12-20T08:51:07,2420,42.8014,5.9826,4330,272,186.383,57.087,13.312,36.044,36.624,41.207,4.583,295.7,545.3,291.2
2023-12-20T08:54:07,2420,42.8014,5.9826,4330,272,186.395,57.096,13.316,36.041,36.621,41.211,4.590,295.7,545.2,291.0
2023-12-20T08:57:07,2420,42.8014,5.9826,4330,272,186.754,57.200,13.312,36.019,36.600,41.193,4.593,295.7,545.2,291.2
2023-12-20T09:00:08,2420,42.8014,5.9826,4330,272,186.533,57.130,13.310,36.035,36.615,41.204,4.590,295.7,545.2,291.2
2023-12-20T09:03:07,2420,42.8014,5.9826,4330,272,186.554,57.141,13.313,36.032,36.612,41.202,4.591,295.7,545.2,291.1
2023-12-20T09:06:08,2420,42.8014,5.9826,4330,272,186.566,57.142,13.311,36.032,36.612,41.196,4.583,295.7,545.3,291.2
2023-12-20T09:09:08,2420,42.8014,5.9826,4330,272,186.404,57.094,13.313,36.042,36.622,41.207,4.585,295.7,545.2,291.1
2023-12-20T09:12:08,2420,42.8014,5.9826,4330,272,186.384,57.096,13.319,36.040,36.620,41.211,4.591,295.6,545.2,290.9
2023-12-20T09:15:08,2420,42.8014,5.9826,4330,272,186.487,57.122,13.315,36.036,36.616,41.207,4.591,295.7,545.2,291.1
2023-12-20T09:18:07,2420,42.8014,5.9826,4330,272,186.381,57.085,13.312,36.045,36.625,41.211,4.586,295.7,545.2,291.2
2023-12-20T09:21:07,2420,42.8014,5.9826,4330,272,186.463,57.105,13.307,36.041,36.621,41.210,4.589,295.7,545.2,291.3
2023-12-20T09:24:07,2420,42.8014,5.9826,4330,272,186.351,57.071,13.307,36.048,36.628,41.213,4.584,295.7,545.3,291.3
2023-12-20T09:27:07,2420,42.8014,5.9826,4330,272,186.351,57.076,13.311,36.046,36.626,41.215,4.589,295.7,545.3,291.2
2023-12-20T09:30:08,2420,42.8014,5.9826,4330,272,186.471,57.113,13.311,36.039,36.619,41.205,4.586,295.6,545.2,291.2
2023-12-20T09:33:07,2420,42.8014,5.9826,4330,272,186.486,57.111,13.307,36.040,36.620,41.210,4.590,295.7,545.3,291.3
2023-12-20T09:36:07,2420,42.8014,5.9826,4330,272,186.582,57.144,13.310,36.032,36.612,41.198,4.586,295.7,545.3,291.2
2023-12-20T09:39:07,2420,42.8014,5.9826,4330,272,186.510,57.120,13.308,36.037,36.617,41.205,4.587,295.7,545.2,291.3
2023-12-20T09:42:08,2420,42.8014,5.9826,4330,272,186.454,57.104,13.309,36.040,36.620,41.206,4.586,295.7,545.2,291.3
2023-12-20T09:45:08,2420,42.8014,5.9826,4330,272,186.440,57.102,13.311,36.041,36.621,41.207,4.586,295.7,545.2,291.2
2023-12-20T09:48:08,2420,42.8014,5.9826,4330,272,186.639,57.165,13.312,36.027,36.607,41.193,4.586,295.8,545.2,291.2
2023-12-20T09:51:08,2420,42.8014,5.9826,4330,272,186.466,57.109,13.310,36.040,36.620,41.209,4.590,295.7,545.2,291.2
2023-12-20T09:54:07,2420,42.8014,5.9826,4330,272,186.450,57.106,13.311,36.040,36.620,41.210,4.590,295.7,545.3,291.2
2023-12-20T09:57:07,2420,42.8014,5.9826,4330,272,186.395,57.087,13.309,36.045,36.625,41.212,4.587,295.6,545.2,291.2
2023-12-20T10:00:07,2420,42.8014,5.9826,4330,272,186.285,57.055,13.311,36.051,36.631,41.223,4.591,295.7,545.2,291.2